THORAD AGENA D DEB

Satellite information

Favourite Embed

Satellite Type and Status

DEBRISIN ORBIT

Key statistics

Satellite THORAD AGENA D DEB at a glance.

Uptime

20180

Days in orbit

Revolutions

≈ 13.8

Per day

Orbit

SSO

Sun Synchronous Orbit

Inclination

100.0

Latest

Satellite identification and parameters

Extended collection of information and parameters for THORAD AGENA D DEB.

Object identification

Identified? True

Debris? True

Object name: THORAD AGENA D DEB

International designator: 1970-025RQ

Object number (NORAD): 42510

Object ID (CCSDS): 42510

Country: UNITED STATES OF AMERICA (US)

Current information (Y/N): Y

RCS size: SMALL

Orbital parameters

Period: 104.243 minutes

Inclination: 100.0254 deg

SMA: 7337.11 km

Apoapsis: 960.527 km

Periapsis: 957.424 km

RAAN: 162.7548 deg

Eccentricy: 0.0002114

Argument of periapsis: 312.1497 deg

Mean anomaly: 108.1649 deg

Mean motion: 13.8138639 rev/day

Mean motion (dot): 0.0000053 rev/day2

B* drag term: 0.00054523 1/REarth

Two-line elements (TLE)

Creation date: June 28, 2025, 5:41 p.m.

Reference frame: TEME

Reference center: EARTH

Epoch: June 28, 2025, 4:11 a.m. UTC

TLE line 0: 0 THORAD AGENA D DEB

TLE line 1: 1 42510U 70025RQ 25179.17486289 .00000530 00000-0 54523-3 0 9995

TLE line 2: 2 42510 100.0254 162.7548 0002114 312.1497 108.1649 13.81386390583449

Live tracking on map

Real-time ground track for satellite THORAD AGENA D DEB.

In-orbit conjunctions

A list of the most updated potential collisions computed for object THORAD AGENA D DEB.

Target Orbit TCA Probability of collision Miss distance Type
COSMOS 489 LEO 2025-04-27 20:43:54 0.0001157106 482.0 (m) PAYLOAD
SL-16 DEB LEO 2024-11-23 19:16:07 0.0001387553 161.0 (m) DEBRIS
THORAD AGENA D DEB SSO 2024-11-09 20:58:53 0.0001360858 588.0 (m) DEBRIS

Associated space launch

Meteorological research and development satellite

THORAD AGENA D DEB was lifted into orbit during the mission ‘Thorad SLV-2G Agena D | Nimbus 4’, on board a Thorad SLV-2G Agena D space rocket.

The launch took place on April 8, 1970, 8:17 a.m. from Space Launch Complex 2E.

For more information about the launch, click the button.

Launch to space Thorad SLV-2G Agena D | Nimbus 4
Thorad SLV-2G Agena D | Nimbus 4

Agency: N/A

Status: Launch Successful

Launch date: April 8, 1970, 8:17 a.m. UTC

Rocket: Thorad SLV-2G Agena D

Launch pad: Space Launch Complex 2E

Location: Vandenberg SFB, CA, USA

...

Latest news about this satellite

There are no fresh news available about this satellite. Check back as we update our databases every day.


Newsletter sign-up

Weekly statistics, charts and insights to help you stay on top of the space industry.